Location: �perlecques
(50.8057°N, 2.1521°E)
Time: 21:08:37
(UTC+00:00)

Tiros 1 - Pass Details

Date: 08 August 2021
Orbit: 630 x 663 km, 48.4° (Epoch: 28 September)

Event Time Altitude Azimuth Distance (km) Brightness Sun altitude
Rises 14:17:02 0° 197° (SSW) 2,983 11.1 45.3°
Reaches altitude 10° 14:20:15 10° 174° (S) 2,074 10.2 44.9°
Maximum altitude 14:22:59 15° 139° (SE) 1,751 9.5 44.6°
Drops below altitude 10° 14:25:43 10° 104° (ESE) 2,076 9.6 44.2°
Sets 14:28:56 0° 82° (E) 2,987 10.2 43.8°
